Search result (516 subtitles found in database that match user bet_7) -=view profile=-
Displaying results 351 -> 400:
1 - 2 - 3 - 4 - 5 - 6 - 7 - 8 - 9 - 10 - 11

Movie title
Language Format #CD Grade Uploader Date
Sin City   Greek SubRip 1 4 votes bet_7 26/02/06 14:18:45
Smallville - 4x01 greek   Greek SubRip 1 1 vote bet_7 01/12/05 19:20:18
Smallville - 4x02   Greek SubRip 1 1 vote bet_7 01/12/05 19:20:41
SmallVille 1x01 - Pilot   Greek SubRip 1 bet_7 25/03/07 07:24:02
SmallVille 1x02 - Metamorphosis   Greek SubRip 1 bet_7 25/03/07 07:24:26
SmallVille 1x03 - X-Ray   Greek SubRip 1 bet_7 25/03/07 07:24:51
SmallVille 1x04 - Cool   Greek SubRip 1 bet_7 25/03/07 07:25:18
SmallVille 1x05 - Hourglass   Greek SubRip 1 bet_7 25/03/07 07:25:42
SmallVille 1x06 - Craving   Greek SubRip 1 bet_7 25/03/07 07:26:27
SmallVille 1x07 - Jitters   Greek SubRip 1 bet_7 25/03/07 07:27:09
SmallVille 1x08 - Rogue   Greek SubRip 1 bet_7 25/03/07 07:27:40
SmallVille 1x09 - Shimmer   Greek SubRip 1 bet_7 25/03/07 07:27:59
SmallVille 1x11 - Hug   Greek SubRip 1 bet_7 25/03/07 07:28:19
SmallVille 1x12 - Leech   Greek SubRip 1 bet_7 25/03/07 07:28:41
SmallVille 1x13 - Kinetic   Greek SubRip 1 bet_7 25/03/07 07:29:01
SmallVille 1x14 - Zero   Greek SubRip 1 bet_7 25/03/07 07:29:19
SmallVille 1x15 - Nicodemus   Greek SubRip 1 bet_7 25/03/07 07:29:39
SmallVille 1x16 - Stray   Greek SubRip 1 bet_7 25/03/07 07:30:00
SmallVille 1x17 - Reaper   Greek SubRip 1 bet_7 25/03/07 07:30:26
SmallVille 1x18 - Drone   Greek SubRip 1 bet_7 25/03/07 07:30:53
SmallVille 1x19 - Crush   Greek SubRip 1 bet_7 25/03/07 07:31:14
SmallVille 1x20 - Obscura   Greek SubRip 1 bet_7 25/03/07 07:31:50
SmallVille 1x21 - Tempest   Greek SubRip 1 bet_7 25/03/07 07:32:10
Smallville 3X1   Greek SubRip 1 1 vote bet_7 17/09/06 10:28:42
Smallville 3X10   Greek SubRip 1 1 vote bet_7 17/09/06 10:32:46
Smallville 3X11   Greek SubRip 1 1 vote bet_7 17/09/06 10:33:20
Smallville 3X12   Greek SubRip 1 bet_7 12/11/06 13:16:25
Smallville 3X13   Greek SubRip 1 1 vote bet_7 12/11/06 13:16:46
Smallville 3X14   Greek SubRip 1 1 vote bet_7 12/11/06 13:17:08
Smallville 3X15   Greek SubRip 1 bet_7 14/11/06 16:01:42
Smallville 3X16   Greek N/A 1 bet_7 14/11/06 16:02:04
Smallville 3X17   Greek SubRip 1 bet_7 14/11/06 16:02:34
Smallville 3X18   Greek SubRip 1 bet_7 14/11/06 16:02:58
SmallVille 3x19 - Memoria   Greek SubRip 1 bet_7 22/11/06 16:41:27
Smallville 3X2   Greek SubRip 1 bet_7 12/11/06 13:15:29
SmallVille 3x20 - Talisman   Greek SubRip 1 bet_7 22/11/06 16:41:49
SmallVille 3x21 - Forsaken   Greek SubRip 1 bet_7 22/11/06 16:42:12
SmallVille 3x22 - Covenant   Greek N/A 1 bet_7 02/02/07 08:43:59
Smallville 3X3   Greek SubRip 1 1 vote bet_7 17/09/06 10:29:05
Smallville 3X4   Greek SubRip 1 1 vote bet_7 17/09/06 10:29:32
Smallville 3X5   Greek SubRip 1 bet_7 17/09/06 10:30:13
Smallville 3X6   Greek SubRip 1 bet_7 17/09/06 10:30:37
Smallville 3X7   Greek SubRip 1 bet_7 17/09/06 10:31:01
Smallville 3X8   Greek SubRip 1 bet_7 17/09/06 10:31:35
Smallville 3X9   Greek SubRip 1 bet_7 17/09/06 10:32:19
Smallville 4X02   Greek SubRip 1 bet_7 02/03/05 15:40:20
Smallville 4X03   English SubRip 1 bet_7 02/03/05 21:08:01
Smallville 4x05+Run+[Xvid   English SubRip 1 1 vote bet_7 02/03/05 21:08:51
Smallville 4X06   English SubRip 1 2 votes bet_7 02/03/05 15:41:13
Smallville 4X09   English SubRip 1 1 vote bet_7 02/03/05 15:41:47
Displaying results 351 -> 400:
1 - 2 - 3 - 4 - 5 - 6 - 7 - 8 - 9 - 10 - 11
0 1 2 3 4 5 6 7 8 9 A B C D E F G H I J K L M N O P Q R S T U V W X Y Z 
copyright © divxsubtitles.net 2001-2014 - contact
links: feeds2read.net
db querying took: 0.028 seconds.